User: anonymous   Login
Location: Unspecified
(0.0000°N, 0.0000°E)
Time: 22:46:21
(UTC+01:00)
Language:

YAOGAN 3 - Orbit

View from above orbital plane
View from above orbital plane
View from above satellite
View from above satellite

Ground track
Ground track

The orbit data is extracted from the following two-line orbital elements,

1 32289U 07055A   18055.88493531 -.00000274 +00000-0 -28668-4 0  9990
2 32289 098.0061 062.3093 0001333 100.1798 259.9566 14.80876222556131
Epoch (UTC): 24 February 2018 21:14:18
Eccentricity: 0.0001333
inclination: 98.0061°
perigee height: 625 km
apogee height: 627 km
right ascension of ascending node: 62.3093°
argument of perigee: 100.1798°
revolutions per day: 14.80876222
mean anomaly at epoch: 259.9566°
orbit number at epoch: 55613

The dashed part of the orbit path shows where the satellite is in the earth's shadow,  

DLR